Date String (YYYY-MM-DD hh:mm:ss) UTC,Instrument flags,Ambient pressure (hPa),Sample flow (lpm),Bypass flow (lpm),Sample temperature (°C),Ambient temperature (°C),ASC tube jacket temperature (°C),LED temperature (°C),Box temperature (°C),Sample RH (%),Span deviation,Mass concentration (μg/m³),Mass concentration (μg/m³),Mass concentration (μg/m³)
DateTimeUTC,F1_M11,P_M11,Q1_M11,Q2_M11,T1_M11,T2_M11,T3_M11,T4_M11,T5_M11,U1_M11,ZSPAN_M11,X0_M11,X2_M11,X1_M11
2022-04-14 16:00:00,,0820.3,5.01,0.00,22.3,23.5,00.0,31.1,24.3,08.4,0000.0,0009.08,0003.64,0002.20
2022-04-14 16:01:00,,0820.3,4.98,0.00,22.3,23.2,00.0,31.2,24.3,08.3,0000.0,0009.36,0003.67,0002.21
2022-04-14 16:02:00,,0820.3,5.01,0.00,22.3,22.7,00.0,31.2,24.1,08.5,0000.0,0009.99,0003.69,0002.21
2022-04-14 16:03:00,,0820.3,4.99,0.00,22.2,22.3,00.0,31.2,24.0,08.6,0000.0,0010.06,0003.70,0002.22
2022-04-14 16:04:00,,0820.3,5.00,0.00,22.2,22.0,00.0,31.2,23.9,08.6,0000.0,0010.10,0003.69,0002.22
2022-04-14 16:05:00,,0820.3,5.00,0.00,22.2,21.8,00.0,31.2,23.8,08.5,0000.0,0009.50,0003.70,0002.24
2022-04-14 16:06:00,,0820.3,5.01,0.00,22.1,21.6,00.0,31.1,23.8,08.7,0000.0,0009.70,0003.75,0002.26
2022-04-14 16:07:00,,0820.3,5.01,0.00,22.1,21.4,00.0,31.1,23.7,08.7,0000.0,0010.06,0003.75,0002.27
2022-04-14 16:08:00,,0820.3,5.01,0.00,22.1,21.3,00.0,31.1,23.7,08.9,0000.0,0010.09,0003.78,0002.29
2022-04-14 16:09:00,,0820.2,5.00,0.00,22.0,21.3,00.0,31.1,23.7,08.8,0000.0,0010.14,0003.82,0002.32
2022-04-14 16:10:00,,0820.3,5.00,0.00,22.0,21.2,00.0,31.1,23.6,08.8,0000.0,0010.01,0003.81,0002.34
2022-04-14 16:11:00,,0820.2,5.00,0.00,22.0,21.1,00.0,31.1,23.7,08.7,0000.0,0009.51,0003.74,0002.36
2022-04-14 16:12:00,,0820.2,5.00,0.00,22.0,21.1,00.0,31.1,23.7,08.8,0000.0,0008.72,0003.75,0002.37
2022-04-14 16:13:00,,0820.2,5.00,0.00,22.0,21.0,00.0,31.1,23.6,08.8,0000.0,0008.26,0003.78,0002.39
2022-04-14 16:14:00,,0820.1,5.00,0.00,22.0,21.0,00.0,31.0,23.6,08.9,0000.0,0008.69,0003.79,0002.38
2022-04-14 16:15:00,,0820.2,5.02,0.00,22.0,20.9,00.0,31.0,23.6,09.0,0000.0,0009.00,0003.83,0002.37
2022-04-14 16:16:00,,0820.1,5.00,0.00,21.9,20.9,00.0,31.0,23.5,09.0,0000.0,0009.18,0003.83,0002.35
2022-04-14 16:17:00,,0820.2,5.00,0.00,21.9,20.9,00.0,31.0,23.5,08.7,0000.0,0009.00,0003.77,0002.34
2022-04-14 16:18:00,,0820.2,4.99,0.00,21.9,20.8,00.0,31.0,23.5,08.9,0000.0,0008.68,0003.76,0002.35
2022-04-14 16:19:00,,0820.2,5.00,0.00,21.9,21.4,00.0,31.0,23.6,09.0,0000.0,0008.68,0003.74,0002.34
2022-04-14 16:20:00,,0820.2,5.00,0.00,22.1,22.7,00.0,31.0,24.0,09.1,0000.0,0008.83,0003.69,0002.33
2022-04-14 16:21:00,,0820.3,5.01,0.00,22.3,23.5,00.0,31.1,24.3,09.0,0000.0,0008.90,0003.66,0002.32
2022-04-14 16:22:00,,0820.3,4.98,0.00,22.3,23.2,00.0,31.1,24.3,08.9,0000.0,0008.88,0003.65,0002.30
2022-04-14 16:23:00,,0820.1,5.00,0.00,22.3,22.9,00.0,31.1,24.2,09.1,0000.0,0008.83,0003.60,0002.30
2022-04-14 16:24:00,,0820.1,5.02,0.00,22.3,22.5,00.0,31.2,24.1,08.8,0000.0,0008.87,0003.55,0002.30
2022-04-14 16:25:00,,0820.2,5.00,0.00,22.3,22.2,00.0,31.2,24.1,08.8,0000.0,0008.44,0003.53,0002.30
2022-04-14 16:26:00,,0820.2,4.99,0.00,22.3,22.0,00.0,31.2,24.0,08.9,0000.0,0007.99,0003.49,0002.31
2022-04-14 16:27:00,,0820.1,5.00,0.00,22.2,21.8,00.0,31.2,23.9,09.1,0000.0,0008.08,0003.49,0002.33
2022-04-14 16:28:00,,0820.1,5.01,0.00,22.2,21.7,00.0,31.2,23.9,08.8,0000.0,0008.58,0003.52,0002.34
2022-04-14 16:29:00,,0820.1,5.01,0.00,22.2,21.5,00.0,31.2,23.8,09.0,0000.0,0009.13,0003.52,0002.33
2022-04-14 16:30:00,,0820.1,5.00,0.00,22.2,21.4,00.0,31.2,23.8,08.8,0000.0,0009.18,0003.55,0002.35
2022-04-14 16:31:00,,0820.0,5.00,0.00,22.1,21.4,00.0,31.2,23.7,08.8,0000.0,0009.00,0003.56,0002.36
2022-04-14 16:32:00,,0820.1,4.99,0.00,22.1,21.3,00.0,31.1,23.7,08.6,0000.0,0008.92,0003.58,0002.37
2022-04-14 16:33:00,,0820.0,4.99,0.00,22.1,21.2,00.0,31.1,23.7,08.7,0000.0,0009.20,0003.62,0002.41
2022-04-14 16:34:00,,0820.1,5.00,0.00,22.0,21.1,00.0,31.1,23.7,08.8,0000.0,0009.26,0003.64,0002.43
2022-04-14 16:35:00,,0820.1,5.00,0.00,22.0,21.1,00.0,31.1,23.6,08.7,0000.0,0009.21,0003.70,0002.45
2022-04-14 16:36:00,,0820.0,5.01,0.00,22.0,21.0,00.0,31.1,23.5,08.6,0000.0,0009.30,0003.75,0002.47
2022-04-14 16:37:00,,0820.0,4.99,0.00,21.9,21.0,00.0,31.0,23.5,08.7,0000.0,0009.39,0003.76,0002.49
2022-04-14 16:38:00,,0819.9,4.99,0.00,21.9,21.0,00.0,31.0,23.5,08.9,0000.0,0009.29,0003.73,0002.48
2022-04-14 16:39:00,,0819.9,4.99,0.00,21.9,21.0,00.0,31.0,23.5,08.6,0000.0,0008.97,0003.75,0002.51
2022-04-14 16:40:00,,0820.0,5.00,0.00,21.9,21.0,00.0,31.0,23.5,08.4,0000.0,0008.52,0003.78,0002.54
2022-04-14 16:41:00,,0820.0,5.00,0.00,21.9,20.9,00.0,31.0,23.5,08.3,0000.0,0009.17,0003.79,0002.55
2022-04-14 16:42:00,,0820.0,5.00,0.00,21.9,20.9,00.0,31.0,23.5,08.7,0000.0,0009.35,0003.81,0002.56
2022-04-14 16:43:00,,0820.0,5.01,0.00,21.8,20.9,00.0,30.9,23.4,08.8,0000.0,0009.78,0003.82,0002.56
2022-04-14 16:44:00,,0819.9,5.01,0.00,21.8,20.9,00.0,30.9,23.4,08.8,0000.0,0010.05,0003.80,0002.55
2022-04-14 16:45:00,,0819.9,5.00,0.00,21.8,20.9,00.0,30.9,23.4,08.6,0000.0,0010.14,0003.81,0002.57
2022-04-14 16:46:00,,0819.9,5.00,0.00,21.8,20.8,00.0,30.9,23.4,08.6,0000.0,0010.04,0003.79,0002.59
2022-04-14 16:47:00,,0819.9,4.99,0.00,21.8,20.8,00.0,30.9,23.4,08.6,0000.0,0010.02,0003.78,0002.61
2022-04-14 16:48:00,,0819.9,5.00,0.00,21.7,20.8,00.0,30.9,23.4,08.4,0000.0,0010.04,0003.81,0002.62
2022-04-14 16:49:00,,0819.9,5.00,0.00,21.7,20.8,00.0,30.8,23.3,08.5,0000.0,0010.06,0003.86,0002.67
2022-04-14 16:50:00,,0819.9,5.01,0.00,21.8,21.4,00.0,30.9,23.5,08.6,0000.0,0009.84,0003.90,0002.70
2022-04-14 16:51:00,,0820.0,5.01,0.00,21.9,22.8,00.0,30.9,23.9,08.5,0000.0,0009.73,0003.88,0002.71
2022-04-14 16:52:00,,0820.0,4.99,0.00,22.1,23.5,00.0,31.0,24.2,08.4,0000.0,0009.24,0003.88,0002.72
2022-04-14 16:53:00,,0819.9,5.01,0.00,22.2,23.2,00.0,31.0,24.2,08.4,0000.0,0009.15,0003.91,0002.74
2022-04-14 16:54:00,,0819.9,4.98,0.00,22.2,22.9,00.0,31.0,24.1,08.2,0000.0,0008.79,0003.93,0002.76
2022-04-14 16:55:00,,0819.9,4.99,0.00,22.2,22.6,00.0,31.0,24.1,08.1,0000.0,0008.33,0003.95,0002.79
2022-04-14 16:56:00,,0819.9,5.00,0.00,22.2,22.3,00.0,31.0,24.0,08.1,0000.0,0008.23,0003.98,0002.81
2022-04-14 16:57:00,,0819.9,5.01,0.00,22.2,22.1,00.0,31.1,24.0,08.0,0000.0,0008.34,0004.02,0002.82
2022-04-14 16:58:00,,0819.9,5.01,0.00,22.2,21.9,00.0,31.1,23.9,08.1,0000.0,0008.35,0004.01,0002.82
2022-04-14 16:59:00,,0819.9,4.99,0.00,22.2,21.8,00.0,31.1,23.9,08.2,0000.0,0008.36,0004.01,0002.84
